| time (UTC) | temp C | wind direction | speed KPH | gust KPH | rain 1hr cm | rain 24hr cm | rain mn cm | humidity % | barometer mb |
| 20260507092805 | 20 | 105 | 8.0 | 11.3 | 0.00 | 0.00 | 0.00 | 67 | 1011.3 |
| 20260507091804 | 20 | 110 | 8.0 | 14.5 | 0.00 | 0.00 | 0.00 | 70 | 1011.4 |
| 20260507091304 | 20 | 79 | 6.4 | 12.9 | 0.00 | 0.00 | 0.00 | 70 | 1011.4 |
| 20260507090804 | 20 | 49 | 3.2 | 11.3 | 0.00 | 0.00 | 0.00 | 70 | 1011.3 |
| 20260507090304 | 19 | 28 | 4.8 | 8.0 | 0.00 | 0.00 | 0.00 | 70 | 1011.3 |
| 20260507085804 | 19 | 302 | 4.8 | 9.7 | 0.00 | 0.00 | 0.00 | 69 | 1011.3 |
| 20260507085306 | 19 | 26 | 6.4 | 11.3 | 0.00 | 0.00 | 0.00 | 69 | 1011.3 |
| 20260507084804 | 19 | 2 | 3.2 | 11.3 | 0.00 | 0.00 | 0.00 | 68 | 1011.3 |
| 20260507084304 | 19 | 346 | 4.8 | 19.3 | 0.00 | 0.00 | 0.00 | 67 | 1011.3 |
| 20260507083805 | 19 | 318 | 8.0 | 14.5 | 0.00 | 0.00 | 0.00 | 67 | 1011.3 |
| 20260507083304 | 19 | 347 | 8.0 | 14.5 | 0.00 | 0.00 | 0.00 | 67 | 1011.3 |
| 20260507082804 | 18 | 300 | 4.8 | 11.3 | 0.00 | 0.00 | 0.00 | 67 | 1011.3 |
| 20260507082306 | 18 | 337 | 3.2 | 9.7 | 0.00 | 0.00 | 0.00 | 68 | 1011.4 |
| 20260507081805 | 18 | 308 | 3.2 | 8.0 | 0.00 | 0.00 | 0.00 | 68 | 1011.4 |
| 20260507081304 | 18 | 335 | 8.0 | 12.9 | 0.00 | 0.00 | 0.00 | 68 | 1011.4 |
| 20260507080804 | 18 | 306 | 4.8 | 9.7 | 0.00 | 0.00 | 0.00 | 69 | 1011.4 |
| 20260507080304 | 18 | 351 | 3.2 | 8.0 | 0.00 | 0.00 | 0.00 | 68 | 1011.4 |
| 20260507075307 | 18 | 347 | 3.2 | 9.7 | 0.00 | 0.00 | 0.00 | 67 | 1011.5 |
| 20260507074805 | 18 | 339 | 4.8 | 9.7 | 0.00 | 0.00 | 0.00 | 67 | 1011.5 |
| 20260507073804 | 18 | 324 | 4.8 | 8.0 | 0.00 | 0.00 | 0.00 | 67 | 1011.5 |
| 20260507072804 | 17 | 325 | 4.8 | 11.3 | 0.00 | 0.00 | 0.00 | 67 | 1011.4 |
| 20260507072306 | 17 | 325 | 4.8 | 9.7 | 0.00 | 0.00 | 0.00 | 68 | 1011.4 |
| 20260507071805 | 17 | 336 | 8.0 | 11.3 | 0.00 | 0.00 | 0.00 | 68 | 1011.4 |
| 20260507071304 | 17 | 263 | 3.2 | 8.0 | 0.00 | 0.00 | 0.00 | 70 | 1011.4 |
| 20260507070805 | 17 | 259 | 4.8 | 9.7 | 0.00 | 0.00 | 0.00 | 70 | 1011.4 |
| 20260507070304 | 17 | 243 | 3.2 | 8.0 | 0.00 | 0.00 | 0.00 | 72 | 1011.3 |
| 20260507065306 | 16 | 246 | 3.2 | 4.8 | 0.00 | 0.00 | 0.00 | 75 | 1011.3 |
| 20260507064804 | 16 | 246 | 3.2 | 4.8 | 0.00 | 0.00 | 0.00 | 76 | 1011.2 |
| 20260507064304 | 16 | 246 | 3.2 | 4.8 | 0.00 | 0.00 | 0.00 | 75 | 1011.2 |
| 20260507063805 | 16 | 246 | 3.2 | 4.8 | 0.00 | 0.00 | 0.00 | 76 | 1011.3 |
| 20260507062306 | 15 | 246 | 4.8 | 8.0 | 0.00 | 0.00 | 0.00 | 80 | 1011.2 |
| 20260507061304 | 15 | 246 | 0.0 | 4.8 | 0.00 | 0.00 | 0.00 | 81 | 1011.1 |
| 20260507060805 | 15 | 271 | 0.0 | 4.8 | 0.00 | 0.00 | 0.00 | 82 | 1011.0 |
| 20260507060305 | 15 | 246 | 0.0 | 1.6 | 0.00 | 0.00 | 0.00 | 82 | 1010.9 |
| 20260507055804 | 15 | 245 | 0.0 | 4.8 | 0.00 | 0.00 | 0.00 | 82 | 1010.8 |
| 20260507055306 | 15 | 245 | 3.2 | 4.8 | 0.00 | 0.00 | 0.00 | 82 | 1010.7 |
| 20260507054804 | 14 | 245 | 1.6 | 4.8 | 0.00 | 0.00 | 0.00 | 82 | 1010.7 |
| 20260507054304 | 14 | 246 | 4.8 | 8.0 | 0.00 | 0.00 | 0.00 | 81 | 1010.6 |
| 20260507053804 | 15 | 245 | 4.8 | 8.0 | 0.00 | 0.00 | 0.00 | 81 | 1010.6 |
| 20260507053304 | 15 | 220 | 3.2 | 4.8 | 0.00 | 0.00 | 0.00 | 80 | 1010.6 |
| 20260507052804 | 15 | 220 | 3.2 | 4.8 | 0.00 | 0.00 | 0.00 | 80 | 1010.6 |
| 20260507052306 | 15 | 220 | 3.2 | 4.8 | 0.00 | 0.00 | 0.00 | 80 | 1010.6 |
| 20260507051304 | 14 | 220 | 0.0 | 0.0 | 0.00 | 0.00 | 0.00 | 81 | 1010.7 |
| 20260507050804 | 14 | 220 | 0.0 | 0.0 | 0.00 | 0.00 | 0.00 | 81 | 1010.7 |
| 20260507045804 | 14 | 220 | 0.0 | 0.0 | 0.00 | 0.00 | 0.00 | 82 | 1010.7 |
| 20260507045306 | 14 | 220 | 0.0 | 0.0 | 0.00 | 0.00 | 0.00 | 82 | 1010.6 |
| 20260507044804 | 13 | 220 | 0.0 | 0.0 | 0.00 | 0.00 | 0.00 | 82 | 1010.6 |
| 20260507044304 | 13 | 220 | 0.0 | 3.2 | 0.00 | 0.00 | 0.00 | 81 | 1010.5 |
| 20260507043804 | 14 | 220 | 0.0 | 0.0 | 0.00 | 0.00 | 0.00 | 82 | 1010.5 |
| 20260507043304 | 14 | 220 | 0.0 | 1.6 | 0.00 | 0.00 | 0.00 | 81 | 1010.5 |
| 20260507042804 | 14 | 220 | 0.0 | 3.2 | 0.00 | 0.00 | 0.00 | 81 | 1010.4 |
| 20260507041804 | 14 | 220 | 1.6 | 3.2 | 0.00 | 0.00 | 0.00 | 81 | 1010.2 |
| 20260507040304 | 15 | 220 | 0.0 | 0.0 | 0.00 | 0.00 | 0.00 | 80 | 1010.1 |
| 20260507035805 | 15 | 220 | 0.0 | 0.0 | 0.00 | 0.00 | 0.00 | 80 | 1010.1 |
| 20260507035306 | 15 | 220 | 0.0 | 0.0 | 0.00 | 0.00 | 0.00 | 80 | 1010.2 |
| 20260507034804 | 15 | 220 | 1.6 | 4.8 | 0.00 | 0.00 | 0.00 | 80 | 1010.1 |
| 20260507034305 | 15 | 220 | 0.0 | 0.0 | 0.00 | 0.00 | 0.00 | 80 | 1010.1 |
| 20260507033305 | 15 | 220 | 0.0 | 0.0 | 0.00 | 0.00 | 0.00 | 80 | 1010.3 |
| 20260507032306 | 14 | 220 | 0.0 | 1.6 | 0.00 | 0.00 | 0.00 | 80 | 1010.4 |
| 20260507031804 | 15 | 220 | 0.0 | 1.6 | 0.00 | 0.00 | 0.00 | 80 | 1010.4 |
| 20260507030804 | 15 | 220 | 0.0 | 0.0 | 0.00 | 0.00 | 0.00 | 80 | 1010.5 |
| 20260507030304 | 15 | 220 | 0.0 | 1.6 | 0.00 | 0.00 | 0.00 | 80 | 1010.5 |
| 20260507025804 | 15 | 220 | 1.6 | 4.8 | 0.00 | 0.00 | 0.00 | 80 | 1010.5 |
| 20260507025306 | 15 | 220 | 0.0 | 3.2 | 0.00 | 0.00 | 0.00 | 81 | 1010.5 |
| 20260507024804 | 15 | 220 | 0.0 | 3.2 | 0.00 | 0.00 | 0.00 | 80 | 1010.5 |
| 20260507024304 | 15 | 220 | 1.6 | 4.8 | 0.00 | 0.00 | 0.00 | 80 | 1010.6 |
| 20260507023804 | 15 | 220 | 0.0 | 1.6 | 0.00 | 0.00 | 0.00 | 81 | 1010.5 |
| 20260507023304 | 15 | 220 | 0.0 | 3.2 | 0.00 | 0.00 | 0.00 | 80 | 1010.6 |
| 20260507022306 | 15 | 220 | 3.2 | 4.8 | 0.00 | 0.00 | 0.00 | 80 | 1010.6 |
| 20260507021804 | 15 | 220 | 1.6 | 4.8 | 0.00 | 0.00 | 0.00 | 80 | 1010.6 |
| 20260507021304 | 15 | 220 | 0.0 | 3.2 | 0.00 | 0.00 | 0.00 | 80 | 1010.6 |
| 20260507020804 | 15 | 220 | 0.0 | 3.2 | 0.00 | 0.00 | 0.00 | 81 | 1010.7 |
| 20260507020304 | 15 | 220 | 1.6 | 3.2 | 0.00 | 0.00 | 0.00 | 81 | 1010.7 |
| 20260507015804 | 14 | 220 | 1.6 | 4.8 | 0.00 | 0.00 | 0.00 | 81 | 1010.7 |
| 20260507015306 | 15 | 220 | 0.0 | 4.8 | 0.00 | 0.00 | 0.00 | 80 | 1010.7 |
| 20260507014803 | 15 | 220 | 1.6 | 4.8 | 0.00 | 0.00 | 0.00 | 80 | 1010.7 |
| 20260507013804 | 15 | 220 | 3.2 | 4.8 | 0.00 | 0.00 | 0.00 | 80 | 1010.6 |
| 20260507013304 | 15 | 220 | 1.6 | 4.8 | 0.00 | 0.00 | 0.00 | 80 | 1010.6 |
| 20260507012805 | 15 | 220 | 3.2 | 11.3 | 0.00 | 0.00 | 0.00 | 80 | 1010.6 |
| 20260507012306 | 15 | 201 | 4.8 | 8.0 | 0.00 | 0.00 | 0.00 | 80 | 1010.7 |
| 20260507011804 | 15 | 108 | 3.2 | 8.0 | 0.00 | 0.00 | 0.00 | 80 | 1010.6 |
| 20260507010304 | 15 | 108 | 3.2 | 4.8 | 0.00 | 0.00 | 0.00 | 79 | 1010.7 |
| 20260507005804 | 15 | 107 | 1.6 | 3.2 | 0.00 | 0.00 | 0.00 | 78 | 1010.7 |
| 20260507004803 | 15 | 107 | 1.6 | 3.2 | 0.00 | 0.00 | 0.00 | 77 | 1010.7 |
| 20260507004304 | 16 | 108 | 1.6 | 4.8 | 0.00 | 0.00 | 0.00 | 77 | 1010.8 |
| 20260507003804 | 16 | 107 | 1.6 | 4.8 | 0.00 | 0.00 | 0.00 | 77 | 1010.8 |
| 20260507003304 | 16 | 108 | 1.6 | 8.0 | 0.00 | 0.00 | 0.00 | 76 | 1010.9 |
| 20260507002804 | 16 | 108 | 3.2 | 8.0 | 0.00 | 0.00 | 0.00 | 76 | 1010.9 |
| 20260507001803 | 16 | 107 | 0.0 | 3.2 | 0.00 | 0.00 | 0.00 | 76 | 1010.8 |
| 20260507000804 | 16 | 107 | 0.0 | 3.2 | 0.00 | 0.00 | 0.00 | 75 | 1010.9 |
| 20260507000306 | 16 | 107 | 3.2 | 4.8 | 0.00 | 0.00 | 0.00 | 74 | 1010.9 |
| 20260506235804 | 16 | 108 | 1.6 | 3.2 | 0.00 | 0.00 | 0.00 | 74 | 1010.9 |
| 20260506235306 | 16 | 107 | 1.6 | 3.2 | 0.00 | 0.00 | 0.00 | 74 | 1010.9 |
| 20260506234804 | 16 | 108 | 1.6 | 3.2 | 0.00 | 0.00 | 0.00 | 74 | 1011.0 |
| 20260506234303 | 16 | 107 | 0.0 | 3.2 | 0.00 | 0.00 | 0.00 | 74 | 1011.1 |
| 20260506233804 | 17 | 107 | 3.2 | 4.8 | 0.00 | 0.00 | 0.00 | 73 | 1011.1 |
| 20260506233304 | 17 | 107 | 0.0 | 1.6 | 0.00 | 0.00 | 0.00 | 71 | 1011.1 |
| 20260506232804 | 17 | 107 | 0.0 | 0.0 | 0.00 | 0.00 | 0.00 | 71 | 1011.2 |
| 20260506232306 | 17 | 107 | 0.0 | 0.0 | 0.00 | 0.00 | 0.00 | 71 | 1011.1 |
| 20260506231804 | 17 | 107 | 0.0 | 0.0 | 0.00 | 0.00 | 0.00 | 71 | 1011.1 |
| 20260506231305 | 17 | 107 | 0.0 | 0.0 | 0.00 | 0.00 | 0.00 | 71 | 1011.1 |
| 20260506230304 | 17 | 107 | 0.0 | 0.0 | 0.00 | 0.00 | 0.00 | 71 | 1011.3 |
| 20260506225803 | 17 | 107 | 0.0 | 0.0 | 0.00 | 0.00 | 0.00 | 71 | 1011.3 |
| 20260506224803 | 17 | 107 | 0.0 | 0.0 | 0.00 | 0.00 | 0.00 | 71 | 1011.3 |
| 20260506224304 | 17 | 107 | 0.0 | 0.0 | 0.00 | 0.00 | 0.00 | 71 | 1011.3 |
| 20260506223804 | 17 | 107 | 0.0 | 0.0 | 0.00 | 0.00 | 0.00 | 71 | 1011.3 |
| 20260506223304 | 17 | 107 | 0.0 | 0.0 | 0.00 | 0.00 | 0.00 | 71 | 1011.3 |
| 20260506222804 | 17 | 107 | 0.0 | 0.0 | 0.00 | 0.00 | 0.00 | 71 | 1011.4 |
| 20260506221804 | 17 | 107 | 0.0 | 0.0 | 0.00 | 0.00 | 0.00 | 70 | 1011.3 |
| 20260506221304 | 17 | 107 | 0.0 | 0.0 | 0.00 | 0.00 | 0.00 | 69 | 1011.3 |
| 20260506220818 | 18 | 107 | 0.0 | 0.0 | 0.00 | 0.00 | 0.00 | 68 | 1011.3 |
| 20260506215306 | 18 | 107 | 3.2 | 4.8 | 0.00 | 0.00 | 0.00 | 68 | 1011.3 |
| 20260506214804 | 18 | 107 | 0.0 | 8.0 | 0.00 | 0.00 | 0.00 | 68 | 1011.3 |
| 20260506214304 | 18 | 108 | 1.6 | 3.2 | 0.00 | 0.00 | 0.00 | 68 | 1011.4 |
| 20260506213804 | 18 | 108 | 3.2 | 4.8 | 0.00 | 0.00 | 0.00 | 68 | 1011.4 |
| 20260506213304 | 18 | 107 | 3.2 | 8.0 | 0.00 | 0.00 | 0.00 | 68 | 1011.4 |
| 20260506212804 | 18 | 94 | 3.2 | 9.7 | 0.00 | 0.00 | 0.00 | 67 | 1011.3 |
| 20260506212306 | 18 | 96 | 1.6 | 8.0 | 0.00 | 0.00 | 0.00 | 68 | 1011.3 |
| 20260506210804 | 18 | 95 | 4.8 | 8.0 | 0.00 | 0.00 | 0.00 | 67 | 1011.1 |
| 20260506210303 | 18 | 96 | 1.6 | 9.7 | 0.00 | 0.00 | 0.00 | 67 | 1011.0 |
| 20260506205804 | 18 | 96 | 6.4 | 11.3 | 0.00 | 0.00 | 0.00 | 67 | 1010.9 |
| 20260506205306 | 18 | 109 | 4.8 | 11.3 | 0.00 | 0.00 | 0.00 | 67 | 1010.9 |
| 20260506204803 | 18 | 89 | 6.4 | 11.3 | 0.00 | 0.00 | 0.00 | 67 | 1010.9 |
| 20260506203804 | 18 | 89 | 3.2 | 11.3 | 0.00 | 0.00 | 0.00 | 67 | 1010.7 |
| 20260506203303 | 18 | 107 | 8.0 | 12.9 | 0.00 | 0.00 | 0.00 | 67 | 1010.7 |
| 20260506202804 | 18 | 102 | 6.4 | 12.9 | 0.00 | 0.00 | 0.00 | 67 | 1010.7 |
| 20260506202306 | 18 | 89 | 6.4 | 9.7 | 0.00 | 0.00 | 0.00 | 67 | 1010.7 |
| 20260506201803 | 18 | 112 | 3.2 | 11.3 | 0.00 | 0.00 | 0.00 | 68 | 1010.6 |
| 20260506201304 | 18 | 83 | 8.0 | 11.3 | 0.00 | 0.00 | 0.00 | 67 | 1010.6 |
| 20260506200804 | 18 | 100 | 8.0 | 12.9 | 0.00 | 0.00 | 0.00 | 67 | 1010.5 |
| 20260506200304 | 18 | 103 | 4.8 | 9.7 | 0.00 | 0.00 | 0.00 | 68 | 1010.4 |
| 20260506195803 | 18 | 114 | 4.8 | 9.7 | 0.00 | 0.00 | 0.00 | 68 | 1010.3 |
| 20260506195306 | 18 | 99 | 4.8 | 12.9 | 0.00 | 0.00 | 0.00 | 68 | 1010.3 |
| 20260506194804 | 18 | 96 | 6.4 | 11.3 | 0.00 | 0.00 | 0.00 | 68 | 1010.2 |
| 20260506194303 | 18 | 115 | 6.4 | 9.7 | 0.00 | 0.00 | 0.00 | 67 | 1010.2 |
| 20260506193304 | 18 | 100 | 8.0 | 11.3 | 0.00 | 0.00 | 0.00 | 66 | 1010.1 |
| 20260506192803 | 18 | 107 | 6.4 | 11.3 | 0.00 | 0.00 | 0.00 | 66 | 1009.9 |
| 20260506192306 | 19 | 87 | 8.0 | 14.5 | 0.00 | 0.00 | 0.00 | 66 | 1010.0 |
| 20260506191804 | 19 | 117 | 4.8 | 9.7 | 0.00 | 0.00 | 0.00 | 66 | 1009.9 |
| 20260506191303 | 19 | 117 | 6.4 | 9.7 | 0.00 | 0.00 | 0.00 | 66 | 1009.8 |
| 20260506190804 | 19 | 125 | 4.8 | 12.9 | 0.00 | 0.00 | 0.00 | 66 | 1009.8 |
| 20260506190303 | 19 | 135 | 4.8 | 11.3 | 0.00 | 0.00 | 0.00 | 66 | 1009.8 |
| 20260506185804 | 19 | 124 | 9.7 | 14.5 | 0.00 | 0.00 | 0.00 | 66 | 1009.7 |
| 20260506185306 | 19 | 134 | 9.7 | 14.5 | 0.00 | 0.00 | 0.00 | 66 | 1009.6 |
| 20260506184804 | 19 | 119 | 9.7 | 14.5 | 0.00 | 0.00 | 0.00 | 65 | 1009.5 |
| 20260506184304 | 19 | 119 | 6.4 | 14.5 | 0.00 | 0.00 | 0.00 | 65 | 1009.6 |
| 20260506183803 | 19 | 114 | 9.7 | 14.5 | 0.00 | 0.00 | 0.00 | 65 | 1009.5 |
| 20260506183304 | 19 | 113 | 8.0 | 12.9 | 0.00 | 0.00 | 0.00 | 64 | 1009.5 |
| 20260506182804 | 19 | 126 | 9.7 | 19.3 | 0.00 | 0.00 | 0.00 | 64 | 1009.5 |
| 20260506182306 | 20 | 118 | 9.7 | 19.3 | 0.00 | 0.00 | 0.00 | 63 | 1009.4 |
| 20260506181804 | 20 | 120 | 9.7 | 14.5 | 0.00 | 0.00 | 0.00 | 63 | 1009.5 |
| 20260506181304 | 20 | 122 | 6.4 | 12.9 | 0.00 | 0.00 | 0.00 | 64 | 1009.4 |
| 20260506180804 | 20 | 119 | 11.3 | 19.3 | 0.00 | 0.00 | 0.00 | 63 | 1009.5 |
| 20260506180303 | 20 | 127 | 11.3 | 19.3 | 0.00 | 0.00 | 0.00 | 63 | 1009.5 |
| 20260506175803 | 20 | 99 | 9.7 | 20.9 | 0.00 | 0.00 | 0.00 | 63 | 1009.4 |
| 20260506175306 | 20 | 69 | 9.7 | 19.3 | 0.00 | 0.00 | 0.00 | 63 | 1009.4 |
| 20260506174803 | 20 | 105 | 11.3 | 19.3 | 0.00 | 0.00 | 0.00 | 63 | 1009.5 |
| 20260506174305 | 20 | 101 | 11.3 | 20.9 | 0.00 | 0.00 | 0.00 | 62 | 1009.6 |
| 20260506173304 | 20 | 112 | 8.0 | 14.5 | 0.00 | 0.00 | 0.00 | 62 | 1009.7 |
| 20260506172806 | 20 | 109 | 6.4 | 19.3 | 0.00 | 0.00 | 0.00 | 63 | 1009.7 |
| 20260506172307 | 20 | 90 | 9.7 | 14.5 | 0.00 | 0.00 | 0.00 | 62 | 1009.7 |
| 20260506170805 | 20 | 119 | 8.0 | 20.9 | 0.00 | 0.00 | 0.00 | 61 | 1009.7 |
| 20260506170305 | 20 | 75 | 9.7 | 20.9 | 0.00 | 0.00 | 0.00 | 61 | 1009.6 |
| 20260506165804 | 20 | 59 | 9.7 | 19.3 | 0.00 | 0.00 | 0.00 | 62 | 1009.7 |
| 20260506165306 | 20 | 87 | 11.3 | 19.3 | 0.00 | 0.00 | 0.00 | 61 | 1009.6 |
| 20260506164804 | 20 | 127 | 11.3 | 20.9 | 0.00 | 0.00 | 0.00 | 61 | 1009.5 |
| 20260506164304 | 21 | 103 | 11.3 | 22.5 | 0.00 | 0.00 | 0.00 | 61 | 1009.6 |
| 20260506163304 | 21 | 111 | 16.1 | 24.1 | 0.00 | 0.00 | 0.00 | 59 | 1009.6 |
| 20260506162804 | 21 | 78 | 11.3 | 20.9 | 0.00 | 0.00 | 0.00 | 59 | 1009.6 |
| 20260506162307 | 21 | 85 | 11.3 | 22.5 | 0.00 | 0.00 | 0.00 | 59 | 1009.5 |
| 20260506161805 | 21 | 101 | 8.0 | 24.1 | 0.00 | 0.00 | 0.00 | 58 | 1009.4 |
| 20260506161304 | 21 | 117 | 9.7 | 20.9 | 0.00 | 0.00 | 0.00 | 59 | 1009.4 |
| 20260506160804 | 21 | 114 | 11.3 | 22.5 | 0.00 | 0.00 | 0.00 | 58 | 1009.4 |
| 20260506155306 | 21 | 53 | 12.9 | 24.1 | 0.00 | 0.00 | 0.00 | 58 | 1009.5 |
| 20260506154305 | 21 | 82 | 12.9 | 19.3 | 0.00 | 0.00 | 0.00 | 58 | 1009.5 |
| 20260506152306 | 21 | 123 | 14.5 | 19.3 | 0.00 | 0.00 | 0.00 | 58 | 1009.5 |
| 20260506151304 | 21 | 84 | 12.9 | 24.1 | 0.00 | 0.00 | 0.00 | 57 | 1009.4 |
| 20260506150805 | 21 | 72 | 14.5 | 22.5 | 0.00 | 0.00 | 0.00 | 58 | 1009.4 |
| 20260506150305 | 21 | 108 | 11.3 | 19.3 | 0.00 | 0.00 | 0.00 | 58 | 1009.4 |
| 20260506145805 | 21 | 104 | 14.5 | 20.9 | 0.00 | 0.00 | 0.00 | 58 | 1009.5 |
| 20260506145306 | 22 | 89 | 16.1 | 29.0 | 0.00 | 0.00 | 0.00 | 56 | 1009.5 |
| 20260506144305 | 22 | 126 | 16.1 | 24.1 | 0.00 | 0.00 | 0.00 | 56 | 1009.5 |
| 20260506143804 | 22 | 142 | 12.9 | 24.1 | 0.00 | 0.00 | 0.00 | 55 | 1009.6 |
| 20260506143305 | 22 | 64 | 16.1 | 25.7 | 0.00 | 0.00 | 0.00 | 54 | 1009.8 |
| 20260506142804 | 23 | 26 | 16.1 | 33.8 | 0.00 | 0.00 | 0.00 | 54 | 1009.7 |
| 20260506141804 | 23 | 104 | 14.5 | 25.7 | 0.00 | 0.00 | 0.00 | 55 | 1009.8 |
| 20260506141304 | 22 | 85 | 14.5 | 20.9 | 0.00 | 0.00 | 0.00 | 55 | 1009.9 |
| 20260506140805 | 22 | 100 | 16.1 | 27.4 | 0.00 | 0.00 | 0.00 | 54 | 1009.9 |
| 20260506140304 | 23 | 44 | 19.3 | 29.0 | 0.00 | 0.00 | 0.00 | 53 | 1009.9 |
| 20260506135805 | 23 | 102 | 14.5 | 24.1 | 0.00 | 0.00 | 0.00 | 54 | 1009.9 |
| 20260506135306 | 23 | 29 | 14.5 | 25.7 | 0.00 | 0.00 | 0.00 | 53 | 1009.9 |
| 20260506134805 | 23 | 74 | 12.9 | 25.7 | 0.00 | 0.00 | 0.00 | 53 | 1009.9 |
| 20260506133804 | 22 | 107 | 16.1 | 29.0 | 0.00 | 0.00 | 0.00 | 55 | 1009.9 |
| 20260506133305 | 23 | 65 | 9.7 | 27.4 | 0.00 | 0.00 | 0.00 | 53 | 1010.0 |
| 20260506132805 | 23 | 44 | 11.3 | 20.9 | 0.00 | 0.00 | 0.00 | 53 | 1010.0 |
| 20260506132307 | 23 | 76 | 12.9 | 22.5 | 0.00 | 0.00 | 0.00 | 54 | 1010.0 |
| 20260506131805 | 23 | 71 | 14.5 | 25.7 | 0.00 | 0.00 | 0.00 | 54 | 1010.0 |
| 20260506131304 | 23 | 79 | 14.5 | 24.1 | 0.00 | 0.00 | 0.00 | 53 | 1010.0 |
| 20260506130805 | 23 | 92 | 16.1 | 32.2 | 0.00 | 0.00 | 0.00 | 52 | 1010.1 |
| 20260506130305 | 23 | 20 | 12.9 | 24.1 | 0.00 | 0.00 | 0.00 | 51 | 1010.1 |
| 20260506125804 | 23 | 64 | 14.5 | 24.1 | 0.00 | 0.00 | 0.00 | 52 | 1010.2 |
| 20260506125305 | 23 | 47 | 14.5 | 22.5 | 0.00 | 0.00 | 0.00 | 52 | 1010.2 |
| 20260506124804 | 22 | 56 | 16.1 | 29.0 | 0.00 | 0.00 | 0.00 | 52 | 1010.3 |
| 20260506124305 | 23 | 69 | 14.5 | 25.7 | 0.00 | 0.00 | 0.00 | 48 | 1010.3 |
| 20260506123804 | 23 | 85 | 11.3 | 19.3 | 0.00 | 0.00 | 0.00 | 48 | 1010.3 |
| 20260506123304 | 23 | 70 | 12.9 | 24.1 | 0.00 | 0.00 | 0.00 | 48 | 1010.4 |
| 20260506122804 | 23 | 46 | 12.9 | 22.5 | 0.00 | 0.00 | 0.00 | 51 | 1010.4 |
| 20260506122306 | 23 | 106 | 9.7 | 19.3 | 0.00 | 0.00 | 0.00 | 51 | 1010.4 |
| 20260506121804 | 23 | 40 | 9.7 | 24.1 | 0.00 | 0.00 | 0.00 | 49 | 1010.4 |
| 20260506121305 | 23 | 35 | 11.3 | 20.9 | 0.00 | 0.00 | 0.00 | 48 | 1010.4 |
| 20260506120804 | 23 | 25 | 9.7 | 20.9 | 0.00 | 0.00 | 0.00 | 48 | 1010.5 |
| 20260506120304 | 23 | 77 | 11.3 | 20.9 | 0.00 | 0.00 | 0.00 | 50 | 1010.5 |
| 20260506115804 | 23 | 31 | 14.5 | 20.9 | 0.00 | 0.00 | 0.00 | 50 | 1010.5 |
| 20260506115307 | 23 | 84 | 9.7 | 16.1 | 0.00 | 0.00 | 0.00 | 51 | 1010.5 |
| 20260506114805 | 23 | 39 | 11.3 | 22.5 | 0.00 | 0.00 | 0.00 | 51 | 1010.6 |
| 20260506114304 | 23 | 107 | 14.5 | 25.7 | 0.00 | 0.00 | 0.00 | 51 | 1010.6 |
| 20260506113304 | 23 | 41 | 11.3 | 19.3 | 0.00 | 0.00 | 0.00 | 51 | 1010.7 |
| 20260506112804 | 23 | 125 | 11.3 | 22.5 | 0.00 | 0.00 | 0.00 | 52 | 1010.7 |
| 20260506111804 | 22 | 83 | 9.7 | 20.9 | 0.00 | 0.00 | 0.00 | 52 | 1010.9 |
| 20260506111304 | 23 | 94 | 9.7 | 20.9 | 0.00 | 0.00 | 0.00 | 54 | 1010.8 |
| 20260506110804 | 23 | 36 | 9.7 | 19.3 | 0.00 | 0.00 | 0.00 | 53 | 1010.8 |
| 20260506110305 | 23 | 128 | 9.7 | 20.9 | 0.00 | 0.00 | 0.00 | 52 | 1010.9 |
| 20260506105804 | 22 | 112 | 9.7 | 24.1 | 0.00 | 0.00 | 0.00 | 52 | 1010.9 |
| 20260506105305 | 22 | 43 | 8.0 | 22.5 | 0.00 | 0.00 | 0.00 | 54 | 1010.9 |
| 20260506104805 | 22 | 74 | 8.0 | 19.3 | 0.00 | 0.00 | 0.00 | 54 | 1010.9 |
| 20260506104305 | 22 | 43 | 11.3 | 19.3 | 0.00 | 0.00 | 0.00 | 55 | 1011.0 |
| 20260506103805 | 22 | 71 | 8.0 | 14.5 | 0.00 | 0.00 | 0.00 | 57 | 1011.0 |
| 20260506103304 | 21 | 53 | 9.7 | 19.3 | 0.00 | 0.00 | 0.00 | 58 | 1011.0 |
| 20260506102805 | 21 | 108 | 6.4 | 19.3 | 0.00 | 0.00 | 0.00 | 56 | 1011.1 |
| 20260506101804 | 22 | 111 | 11.3 | 19.3 | 0.00 | 0.00 | 0.00 | 56 | 1011.2 |
| 20260506101305 | 21 | 81 | 6.4 | 19.3 | 0.00 | 0.00 | 0.00 | 56 | 1011.2 |
| 20260506100804 | 21 | 81 | 9.7 | 14.5 | 0.00 | 0.00 | 0.00 | 56 | 1011.2 |
| 20260506100305 | 21 | 71 | 4.8 | 12.9 | 0.00 | 0.00 | 0.00 | 56 | 1011.2 |
| 20260506094805 | 21 | 101 | 3.2 | 9.7 | 0.00 | 0.00 | 0.00 | 57 | 1011.2 |
| 20260506094305 | 21 | 113 | 4.8 | 11.3 | 0.00 | 0.00 | 0.00 | 58 | 1011.2 |
| 20260506093805 | 21 | 148 | 4.8 | 12.9 | 0.00 | 0.00 | 0.00 | 57 | 1011.1 |
| 20260506093304 | 21 | 149 | 3.2 | 16.1 | 0.00 | 0.00 | 0.00 | 56 | 1011.1 |